Theta_e
306 308 310 309 308 305 305 305 305 305 306 307 311 315 317 319 321 323 324 324 323 324 325 327 330 329 329 327 327 327 325 326 325 325 326 326 327 327 327 325 324 324 325 325
308 309 308 306 305 306 307 308 309 306 305 305 305 306 307 310 315 317 321 323 322 323 325 327 329 331 330 330 329 328 327 326 325 325 327 326 325 326 327 325 323 323 325 325
309 309 307 306 307 307 308 309 309 308 306 306 306 307 306 306 307 310 313 318 322 323 323 328 326 330 332 331 330 328 327 326 326 327 327 326 325 325 325 324 323 322 324 325
311 308 308 308 308 307 309 307 306 307 307 309 307 309 308 307 306 306 308 311 318 323 323 324 328 326 331 331 330 329 329 327 326 327 327 326 325 324 322 323 323 322 323 324
311 309 309 309 309 307 308 306 306 307 309 309 308 308 307 307 307 308 310 313 314 316 320 323 326 326 329 331 331 330 329 329 328 328 327 326 326 325 323 323 323 322 322 324
309 309 308 310 309 308 306 306 307 307 309 311 308 308 307 307 306 307 308 308 313 318 319 321 324 327 327 329 330 329 330 329 329 328 328 327 326 326 325 325 324 323 322 322
311 311 309 308 309 308 308 311 313 313 313 310 306 308 308 306 307 306 307 308 311 318 321 321 323 328 327 327 329 329 329 329 329 328 328 327 327 327 326 324 324 324 323 321
313 314 310 309 310 312 310 309 312 312 311 309 307 308 307 307 307 307 307 308 310 313 318 322 323 326 327 326 328 329 328 328 328 328 328 328 327 327 327 325 324 325 323 322
313 314 309 309 309 309 312 311 310 311 311 310 308 308 308 310 309 309 307 309 310 311 315 321 322 323 326 327 326 327 328 328 327 327 327 327 327 327 327 326 325 324 324 323
309 312 310 309 307 309 310 308 311 311 309 307 307 313 315 312 309 308 309 310 312 313 314 314 316 321 323 325 326 325 327 327 327 326 326 326 327 327 327 326 325 324 324 323
308 308 312 308 310 310 311 310 308 308 308 309 310 309 310 311 308 309 306 308 309 311 313 315 317 319 321 323 326 326 325 326 326 326 325 325 326 326 326 326 324 324 324 323
308 309 312 313 309 307 307 309 307 309 310 309 310 309 306 306 305 304 305 304 305 306 306 307 311 313 316 321 326 327 325 325 325 325 325 325 325 326 325 326 324 323 323 322
308 311 315 316 312 310 310 308 308 310 314 312 313 316 305 306 306 305 305 305 304 304 305 305 306 305 305 307 313 322 325 325 324 324 323 324 324 325 325 324 324 322 322 321
306 310 314 315 313 310 313 312 310 310 314 315 316 314 310 305 304 303 304 304 304 303 303 304 303 302 301 302 304 307 309 315 321 323 323 323 323 324 323 323 323 322 321 321
308 312 311 311 309 308 308 307 308 312 310 315 314 310 307 305 305 301 301 302 302 302 301 300 301 302 299 299 300 303 306 309 313 318 321 322 322 323 323 323 323 322 321 320
305 311 311 313 310 309 308 307 307 307 307 310 310 308 304 303 301 301 301 300 300 299 298 297 297 297 297 297 297 299 302 305 307 308 309 311 314 317 319 322 322 323 322 320
305 307 309 314 311 311 309 308 308 306 305 307 309 307 304 303 302 300 300 299 298 297 296 295 294 293 293 292 293 296 298 302 303 303 304 305 308 310 312 313 314 316 316 316
303 305 307 311 310 312 309 306 307 308 305 305 306 305 304 304 301 298 297 298 296 295 294 294 293 292 291 290 291 294 295 296 296 297 298 300 302 305 307 310 310 310 310 311
299 303 308 312 312 310 308 308 307 305 308 304 305 305 305 303 301 300 297 295 294 293 292 291 290 288 289 288 290 291 294 295 295 294 294 295 297 299 303 306 307 308 307 308
299 300 306 307 311 312 309 306 304 303 310 305 303 303 303 304 304 301 297 294 293 291 289 289 287 286 286 287 288 289 288 288 287 289 292 294 295 296 298 302 304 305 305 306
297 301 306 307 309 308 305 302 302 310 309 305 301 300 300 301 299 297 294 293 291 289 287 286 286 285 284 287 287 287 286 285 287 289 290 291 292 293 294 296 298 301 303 303
300 303 304 302 307 311 301 301 305 305 301 300 300 300 299 298 297 296 294 292 290 288 286 285 285 284 284 285 285 285 284 286 288 289 290 290 290 291 292 293 295 296 297 298
300 300 303 304 307 301 299 300 300 299 301 300 299 299 298 299 297 295 294 292 289 287 285 284 284 284 284 285 284 284 285 286 288 287 287 288 289 290 290 290 290 292 294 294
293 296 300 298 296 298 298 297 297 297 297 296 296 297 297 297 295 295 293 292 289 285 284 284 285 285 284 285 285 285 286 287 287 287 287 287 287 287 289 290 291 291 291 292
295 296 296 297 295 295 297 297 296 296 295 294 294 295 295 295 294 294 292 290 287 285 283 283 284 283 284 286 287 287 287 287 287 287 287 287 285 286 287 287 288 289 291 291
293 296 299 300 295 299 299 297 294 296 295 294 293 293 291 290 291 288 288 286 285 284 282 282 283 283 285 285 285 286 286 285 285 284 283 283 283 284 285 286 287 289 290 290
Wind_Speed
3 4 8 7 10 9 3 6 9 6 7 10 16 18 18 12 13 18 19 17 16 17 17 20 28 30 29 32 33 34 35 32 31 30 27 26 26 25 23 22 22 22 21 21
2 8 11 9 8 10 13 14 16 16 16 13 17 23 19 22 17 18 17 20 21 18 17 18 26 30 35 36 37 35 36 36 36 34 30 27 25 25 24 22 23 25 23 23
7 5 2 5 7 11 13 14 13 14 11 15 16 26 25 26 23 21 22 22 21 21 19 16 22 30 36 35 36 37 36 33 35 32 28 23 21 20 24 25 28 30 26 26
8 7 9 12 14 11 13 7 13 13 8 6 0 10 14 13 20 21 22 23 23 22 22 17 20 26 32 37 36 35 36 36 34 35 31 32 30 26 28 28 26 26 28 29
3 5 7 12 12 9 7 8 9 12 13 13 19 9 7 14 19 23 18 20 23 25 25 24 19 27 32 31 35 35 35 36 35 37 37 36 33 30 24 25 25 27 30 32
16 8 7 16 10 12 2 7 12 9 9 8 19 15 14 16 19 21 18 21 21 22 24 24 27 27 28 28 31 33 36 40 39 39 40 38 36 32 27 27 28 29 31 36
5 12 10 10 8 10 12 4 4 6 7 8 7 12 20 18 19 24 22 19 23 19 20 23 21 21 27 29 33 33 35 36 38 38 38 39 38 34 32 31 30 28 28 32
5 8 7 9 9 5 15 14 6 7 5 8 6 9 13 19 21 21 24 20 21 16 17 21 22 24 28 30 33 34 35 36 36 38 41 41 39 36 36 34 32 32 33 40
5 5 1 6 7 4 3 10 7 2 4 6 9 16 12 10 4 9 8 7 10 10 10 19 21 25 27 27 31 36 36 36 35 39 37 37 37 38 37 35 34 33 34 36
3 8 2 1 2 5 2 3 3 4 4 8 7 7 5 12 13 11 11 10 9 6 5 5 8 21 24 26 27 29 31 32 36 35 35 39 39 39 37 34 35 36 34 34
4 5 1 3 6 9 4 4 7 3 6 4 5 4 2 6 9 9 9 11 11 10 9 8 7 6 15 20 22 26 30 30 30 32 34 34 35 34 33 33 34 37 37 37
2 4 6 5 1 5 11 7 12 4 3 4 6 7 6 8 8 8 12 8 10 12 12 12 11 14 14 7 13 20 23 26 29 29 30 32 30 30 33 36 35 34 35 35
5 3 6 2 2 2 4 10 11 5 2 11 3 2 5 10 10 8 7 9 12 15 16 14 15 13 19 20 16 4 10 19 21 23 24 26 28 29 31 33 31 30 32 33
5 3 4 6 4 5 4 6 15 11 4 4 6 3 5 8 8 10 12 15 16 16 16 16 16 14 20 21 21 21 20 10 6 15 18 21 24 28 30 30 29 30 33 32
5 3 2 2 6 5 12 14 13 17 17 5 6 7 8 8 7 12 13 14 16 17 17 16 15 14 20 20 21 21 23 26 19 4 5 10 18 24 26 27 28 31 32 36
8 3 4 3 3 8 11 16 15 9 6 6 3 9 5 5 6 11 13 14 16 16 15 16 15 17 20 21 20 20 22 25 23 23 21 17 11 3 9 20 30 33 36 37
5 5 3 2 6 3 4 11 9 6 11 4 7 4 6 9 13 12 11 13 14 14 14 15 14 16 20 22 21 21 21 20 20 21 20 21 18 16 13 11 9 11 17 22
7 8 2 3 5 4 0 6 7 5 9 9 6 5 5 6 8 11 12 11 10 10 11 12 15 17 19 18 20 21 22 22 22 22 21 21 20 17 15 13 14 14 14 15
9 4 3 3 4 3 1 3 4 5 7 7 5 6 7 10 8 10 13 11 10 10 10 12 11 12 13 16 18 21 23 23 24 26 25 24 23 22 19 16 17 18 18 19
3 3 2 0 1 0 1 3 5 2 4 6 3 3 1 2 6 3 9 8 8 10 10 11 12 13 16 19 20 21 22 19 21 24 22 21 20 20 22 20 20 20 20 22
2 1 1 2 1 3 1 1 6 1 4 6 4 2 3 2 3 3 4 5 6 7 9 9 11 13 15 18 19 19 20 22 22 21 21 20 19 18 15 16 15 17 19 20
2 1 1 2 1 1 2 3 2 3 3 2 1 1 1 2 3 2 4 4 5 6 7 8 8 11 15 17 15 15 20 23 23 26 26 25 24 23 20 18 16 13 13 15
2 3 2 5 0 1 1 2 1 1 2 1 1 1 1 1 2 3 3 5 5 5 6 8 9 11 17 21 21 19 23 26 26 25 24 26 26 25 25 22 20 17 14 14
4 2 3 3 2 6 1 1 0 2 2 1 2 2 2 2 2 2 3 3 4 5 6 8 10 15 18 20 21 21 23 26 27 25 26 25 22 23 24 24 22 21 17 14
1 6 4 6 5 3 5 5 4 4 3 3 2 2 1 2 2 2 2 1 2 2 3 4 8 11 15 17 19 21 23 24 25 26 27 28 23 21 20 20 21 20 16 16
7 6 6 4 3 1 3 7 2 5 4 3 1 2 1 1 2 2 3 2 2 2 1 1 5 8 12 14 16 19 20 22 24 20 22 21 19 20 19 20 20 21 17 16
Wind_Direction
85 254 243 265 243 268 308 295 283 285 307 299 262 265 259 239 261 248 253 259 256 252 243 213 202 196 192 204 209 208 198 197 197 196 194 198 202 202 207 208 206 204 203 201
171 250 280 242 249 251 260 263 264 272 258 269 281 272 260 258 254 258 255 257 259 256 245 214 205 199 202 199 204 205 206 196 197 198 201 206 207 209 211 212 210 207 207 205
228 258 348 194 231 237 246 257 258 259 295 273 281 279 265 254 255 248 253 257 253 248 249 226 212 205 208 204 204 202 202 201 197 199 200 200 204 207 209 211 213 212 209 209
259 268 261 241 256 253 275 240 254 267 266 261 127 281 278 250 245 243 243 247 250 243 244 245 224 215 210 209 206 205 203 205 203 200 199 196 194 203 208 211 214 210 210 212
298 239 225 230 234 207 257 262 259 266 257 266 254 261 268 239 247 249 240 238 245 243 240 238 224 214 216 211 206 205 205 204 205 202 203 200 205 214 209 209 211 209 214 215
258 259 257 244 254 233 218 230 255 263 248 236 242 220 272 246 243 263 250 236 239 244 242 235 220 213 212 207 207 205 206 208 207 206 205 205 208 209 205 203 205 204 212 214
257 253 238 237 253 236 215 180 218 221 210 251 259 226 239 275 244 246 262 250 238 242 240 234 222 209 209 204 205 205 208 211 209 206 208 210 211 209 208 207 206 205 207 209
317 310 176 162 216 234 204 202 212 245 244 286 238 239 241 247 263 264 268 271 255 265 260 237 226 212 213 204 201 203 205 213 211 209 211 212 212 212 212 214 212 211 210 217
298 255 346 220 222 200 145 210 213 289 219 261 253 262 277 350 206 314 325 308 274 265 288 246 227 218 216 211 205 202 205 209 211 214 212 215 215 214 213 216 214 214 216 219
289 289 195 113 105 167 234 119 170 165 275 272 257 323 304 341 323 330 337 358 331 331 332 303 283 227 223 218 212 215 214 213 211 212 215 214 215 218 216 215 211 212 217 217
253 230 246 173 208 185 170 198 221 245 227 277 293 267 240 323 321 350 355 16 353 9 20 11 352 324 233 224 215 210 214 219 218 213 214 219 219 218 220 220 216 215 216 218
286 297 285 291 291 295 225 224 205 214 237 250 300 284 354 16 23 19 28 14 23 39 35 32 37 35 38 26 230 217 217 218 220 216 214 216 219 219 218 219 219 217 217 220
1 266 301 253 174 175 219 228 230 227 253 232 248 297 1 26 13 33 45 49 44 42 39 39 41 38 32 29 28 5 230 227 225 219 213 215 217 218 220 222 223 220 218 222
295 250 288 310 343 324 312 329 239 209 249 300 253 112 13 11 13 9 30 38 40 38 35 34 35 34 27 24 26 29 33 32 235 220 213 214 215 219 222 225 223 222 223 222
347 280 270 231 80 57 36 18 7 213 220 293 41 79 16 351 7 23 31 36 38 30 23 22 20 22 25 19 15 23 29 41 46 71 219 236 234 224 222 224 223 227 231 234
338 298 305 239 171 62 41 15 22 31 8 74 52 70 348 353 24 25 25 31 30 23 18 15 11 7 8 11 4 9 18 33 44 49 46 40 32 321 249 234 233 240 242 243
308 312 314 278 351 233 4 356 359 17 22 347 49 36 349 19 29 23 8 30 26 12 8 13 14 13 2 354 351 1 14 27 33 37 32 29 25 25 17 355 319 271 246 242
295 313 305 302 315 52 1 324 333 13 34 24 52 33 14 39 49 38 27 32 23 13 10 17 12 12 7 360 359 10 17 18 16 17 14 8 3 0 5 7 353 336 315 289
223 290 312 335 26 114 182 358 347 356 34 12 29 32 21 29 27 37 20 20 21 14 11 21 14 17 17 14 6 21 29 24 15 7 1 355 351 344 342 350 343 333 319 305
157 256 255 275 77 88 164 232 188 288 57 313 22 62 17 262 59 10 3 7 24 25 18 16 16 23 31 24 23 25 20 21 14 6 1 358 351 341 337 336 324 315 310 305
345 4 72 9 130 267 168 303 142 230 150 206 249 304 351 67 40 26 20 33 38 29 21 18 26 31 27 29 28 23 19 14 6 11 11 9 5 355 344 333 326 305 297 294
298 311 159 149 201 237 53 136 240 71 83 154 221 272 29 64 62 49 45 51 41 31 26 30 37 33 32 33 31 24 23 11 15 20 15 12 9 6 1 351 337 323 312 299
269 230 294 216 197 22 299 325 347 350 106 124 217 6 15 68 37 25 14 31 28 24 19 29 37 38 33 32 30 22 13 14 17 18 12 12 12 11 9 1 354 343 330 320
233 179 244 318 196 232 248 175 42 41 75 27 29 32 48 78 29 35 17 14 5 4 13 20 29 30 25 25 26 23 15 17 21 17 12 8 5 3 6 1 356 349 343 330
222 154 202 258 254 275 231 211 174 144 120 90 65 46 47 359 342 338 352 345 335 331 349 19 34 28 21 20 22 21 17 15 16 18 15 11 6 357 354 353 347 343 339 330
186 185 185 221 187 144 164 170 152 164 165 129 48 305 81 347 325 329 296 280 274 251 248 43 33 24 16 15 17 18 17 15 13 9 6 4 359 356 353 349 345 356 350 341